Flag for Colombia Weather past 2 weeks in Manizales, Colombia

Now
75 °F

Passing clouds.


Feels Like: 77 °F
Forecast: 56 / 73 °F
Wind: 2 mph from North

Location: Pereira / Matecana

Current Time: Dec 21, 2014 at 12:55:35 PM

Latest Report: Dec 21, 2014 at 12:00 PM


Visibility: N/A

Pressure: 30.05 "Hg

Humidity: 69%

Dew point: 64 °F

Location of ManizalesLocation

Historic Weather in Manizales — Graph

°F

Manizales temperature yesterday

Maximum temperature yesterday: 77 °F (at 11:00 AM)
Minimum temperature yesterday: 66 °F (at 1:00 AM)
Average temperature yesterday: 70 °F

Past Weeks' High & Low Weather Summary

 TemperatureHumidityPressure
High82 °F (Dec 15, 4:00 PM)100% (Dec 7, 11:00 PM)30.16 "Hg (Dec 7, 11:00 PM)
Low61 °F (Dec 10, 5:00 AM)41% (Dec 6, 2:00 PM)29.89 "Hg (Dec 8, 4:00 PM)
Average70 °F80%30.05 "Hg
* Reported Dec 6 12:00 Noon — Dec 21 12:00 Noon, Manizales, Weather by CustomWeather, © 2014

Note: Actual official high and low records may vary slightly from our data, if they occured in-between our weather recording intervals... More about our weather records

Advertising

Manizales weather history for previous 24 hours

 ConditionsComfort  
Time TempWeatherWind HumidityBarometerVisibility
12:00 PM
Dec 21
75 °FPassing clouds.2 mph69%30.05 "HgN/A
11:00 AM75 °FScattered clouds.5 mph74%30.08 "HgN/A
10:00 AM73 °FScattered clouds.2 mph69%30.10 "HgN/A
9:00 AM68 °FPartly sunny.5 mph83%30.10 "Hg5 mi
8:00 AM66 °FFog.5 mph83%30.09 "HgN/A
7:00 AM66 °FFog.8 mph78%30.06 "HgN/A
6:00 AM64 °FPartly cloudy.6 mph88%30.04 "Hg4 mi
5:00 AM64 °FPassing clouds.8 mph88%30.02 "Hg5 mi
1:00 AM66 °FPassing clouds.9 mph83%30.04 "HgN/A
12:00 AM66 °FPassing clouds.9 mph83%30.06 "HgN/A
11:00 PM
Dec 20
66 °FPassing clouds.8 mph83%30.06 "HgN/A
10:00 PM68 °FPassing clouds.5 mph83%30.07 "HgN/A
9:00 PM68 °FPassing clouds.9 mph83%30.06 "HgN/A
8:00 PM68 °FPassing clouds.8 mph88%30.03 "HgN/A
7:00 PM70 °FPassing clouds.7 mph83%30.00 "HgN/A
6:00 PM70 °FPassing clouds.3 mph88%29.99 "HgN/A
4:00 PM68 °FThunderstorms. Broken clouds.7 mph88%29.97 "Hg2 mi
3:00 PM73 °FThunderstorms. Scattered clouds.6 mph83%29.97 "HgN/A
2:00 PM77 °FScattered clouds.9 mph69%29.99 "HgN/A
1:00 PM77 °FScattered clouds.7 mph65%30.02 "HgN/A
12:00 PM77 °FScattered clouds.2 mph69%30.06 "HgN/A
Weather by CustomWeather, © 2014

See weather overviewHow to use our weather pages